Dewpoint
58 57 57 57 58 57 50 48 39 43 40 38 36 35 32 34 36 35 36 35 32 38 43 41 39 40 33 33 34 36 37 38 39 25 24 36 38 30 30 30 30 33 37 44 48 47 48 49 49 48 48 48 48 47 47 48 47 47 46 47 46 47 47 47 46 46 45 45 47 48 49 50 50 50 50 49 50 50 50 51 50 50 50 50 50 49 49 49 49 50 50 50 50 50 50 49 49
49 47 54 56 54 50 45 47 39 38 37 35 36 35 34 33 32 33 31 34 36 37 40 38 40 42 42 40 36 39 36 38 40 39 39 42 30 32 30 30 28 28 35 45 44 45 46 49 49 48 47 47 48 47 47 46 47 46 46 46 46 47 47 46 46 46 46 47 47 49 48 49 49 50 50 50 50 50 50 49 50 49 50 49 49 48 49 48 49 49 49 49 49 49 49 49 49
49 45 52 55 51 50 47 45 38 35 35 34 35 32 33 29 31 32 35 36 37 39 37 36 36 35 33 36 29 28 29 39 37 38 38 37 32 32 34 33 28 28 31 40 43 44 46 50 49 48 46 48 47 47 47 46 46 46 45 46 45 46 47 46 46 46 47 48 48 48 48 48 48 48 49 48 49 49 50 49 49 48 49 49 48 48 48 49 48 49 49 50 49 49 50 49 49
54 48 48 50 46 47 42 39 37 34 33 33 32 33 33 33 35 37 38 37 36 35 35 32 30 34 33 29 33 38 36 36 34 34 35 34 32 36 34 36 37 29 30 38 41 43 46 47 48 48 47 47 47 47 46 47 46 46 46 46 45 46 46 47 47 47 47 47 48 47 47 48 48 48 48 49 49 48 48 49 48 47 48 48 48 49 49 50 48 49 50 49 50 50 50 50 49
45 49 49 47 45 42 40 37 36 34 31 30 29 33 33 35 36 35 35 35 33 34 34 33 33 36 38 35 40 32 33 37 38 38 36 38 39 36 36 38 31 30 31 38 39 42 45 47 48 48 46 47 47 46 47 47 46 46 45 45 46 46 46 46 47 47 47 46 47 47 47 46 47 47 46 47 47 47 48 47 47 46 47 47 48 48 49 49 48 49 49 49 48 49 50 50 50
47 42 50 45 40 45 39 35 35 35 35 33 29 30 34 35 34 33 33 35 35 35 36 36 33 31 30 34 40 32 38 32 36 37 37 36 36 35 35 40 30 29 30 38 39 41 44 47 49 49 46 45 47 47 46 47 48 47 43 45 46 46 46 46 46 46 45 45 46 46 46 46 46 46 45 45 46 46 46 46 46 46 46 46 47 48 48 49 48 48 48 48 48 48 49 49 49
44 42 44 45 44 41 36 34 34 34 33 32 29 33 35 35 33 33 33 32 34 38 38 36 38 31 27 28 35 39 37 37 36 37 36 37 36 37 37 34 31 28 29 34 36 39 43 48 48 48 46 46 47 46 46 46 47 45 45 44 45 45 46 46 46 45 44 44 45 44 44 44 44 44 45 45 45 45 45 45 45 45 45 45 46 47 48 47 46 47 47 47 47 48 47 47 47
45 37 42 38 37 36 34 34 34 33 31 31 29 35 36 34 34 33 32 33 31 32 35 36 39 34 32 37 31 35 35 35 37 36 39 37 37 35 35 30 30 28 28 32 36 40 47 46 47 48 47 46 44 46 46 45 46 46 46 46 44 45 46 46 45 44 42 43 44 43 43 43 43 43 45 43 44 44 44 44 44 43 44 45 45 47 46 46 45 45 46 46 46 47 46 46 45
43 38 44 37 32 34 30 29 31 31 31 31 35 40 40 35 35 33 32 33 34 33 34 35 38 28 34 33 34 37 33 36 33 38 35 35 36 37 32 30 27 26 29 33 37 41 42 46 46 46 47 45 45 44 47 46 46 45 45 43 44 45 45 45 45 44 43 42 42 42 42 42 43 43 43 43 43 43 42 42 42 42 42 43 44 45 46 45 44 44 44 45 45 45 45 46 45
36 39 35 31 34 29 31 30 26 27 29 31 35 37 36 37 36 34 32 33 31 35 34 34 38 30 36 33 32 32 33 39 36 33 33 34 33 34 30 32 30 27 29 33 36 38 40 48 44 46 47 45 45 46 46 46 46 46 44 44 43 44 45 44 44 43 42 42 41 41 41 42 42 42 43 43 42 42 42 41 41 41 40 42 43 43 44 44 44 43 43 44 44 44 45 45 45
29 39 40 32 29 28 28 27 27 28 31 32 36 36 36 36 36 35 34 35 34 32 36 36 33 33 33 35 33 36 38 39 33 33 33 34 33 32 29 31 29 27 28 32 34 35 41 42 47 44 47 45 46 46 46 44 46 46 45 44 44 44 45 44 44 43 41 41 40 40 40 41 42 43 43 42 41 41 40 39 40 40 40 41 42 43 43 44 44 43 44 43 44 45 45 45 44
28 33 35 29 27 27 28 27 28 28 27 31 33 37 34 36 36 35 33 32 30 32 32 34 32 33 33 33 33 33 36 33 33 33 34 33 31 31 29 30 30 28 29 28 34 36 39 40 44 46 46 44 44 44 45 45 47 45 45 44 44 44 43 44 43 42 40 40 39 39 40 41 41 41 41 40 40 39 38 38 38 38 39 40 42 43 44 44 43 43 44 44 45 45 45 44 43
32 33 27 23 25 24 23 22 23 28 26 27 31 35 33 33 32 35 31 32 33 29 34 30 32 29 29 29 32 33 31 32 30 30 33 33 32 31 32 30 31 30 32 34 30 35 38 38 40 44 44 44 44 43 44 45 46 45 45 44 42 43 42 42 41 41 40 40 40 39 39 39 39 39 38 37 37 37 36 36 36 37 40 41 42 43 44 45 43 43 43 43 43 42 42 42 42
29 32 26 21 26 22 21 23 26 24 24 27 33 34 32 31 33 37 32 28 32 27 34 30 29 27 26 26 33 33 28 30 31 29 31 32 32 30 30 30 35 32 35 33 30 31 35 37 39 41 43 42 41 43 44 44 45 45 44 44 42 42 42 41 40 41 41 40 40 39 38 36 36 36 34 33 34 35 35 34 35 38 40 42 41 42 43 43 41 42 42 42 41 41 41 41 40
26 34 24 24 18 14 22 12 15 23 25 27 34 33 30 29 32 34 30 27 28 33 31 29 28 28 24 25 26 32 31 32 31 32 29 32 31 30 31 30 32 30 32 30 30 30 31 36 37 39 43 41 40 40 41 42 43 44 44 43 42 42 41 40 41 40 40 39 37 36 34 33 32 31 31 29 31 33 32 33 35 38 40 40 40 42 41 40 40 40 41 40 40 40 40 39 38
33 31 26 21 19 16 18 22 23 21 22 30 33 28 28 26 36 32 30 32 35 34 33 28 29 26 26 24 25 32 34 34 31 28 29 29 31 34 32 28 29 30 32 31 30 32 31 31 35 38 40 40 39 39 40 41 44 42 43 42 42 41 40 40 40 38 38 36 35 33 31 33 34 33 30 29 31 32 30 31 34 37 37 38 39 38 38 38 39 39 39 38 38 38 38 37 34
34 34 22 27 22 20 24 18 20 18 24 29 31 28 28 29 33 33 36 34 31 35 33 30 30 29 27 25 26 29 33 34 35 29 28 28 28 29 30 30 30 30 31 32 31 31 33 31 31 36 37 39 37 37 39 41 41 41 42 42 41 40 39 39 37 36 36 34 34 31 30 29 32 28 29 30 31 32 28 30 32 33 35 36 36 35 36 36 37 37 36 36 36 36 34 32 29
33 22 21 18 24 21 21 20 20 23 28 29 28 27 27 26 29 31 29 28 31 34 34 34 31 29 29 29 31 30 32 32 31 29 28 27 28 27 29 29 30 29 31 31 32 32 33 31 29 32 33 33 32 35 38 41 40 41 38 37 37 39 38 39 36 35 35 33 32 30 30 35 27 29 30 30 33 29 32 28 29 31 34 34 33 32 33 34 35 35 35 34 34 33 31 21 23
25 25 23 21 24 23 19 21 26 23 24 30 29 28 26 24 28 28 26 29 30 29 30 31 29 30 29 28 28 30 31 31 29 30 29 28 27 27 27 30 29 28 30 32 32 31 32 32 30 31 30 28 30 31 35 38 37 37 35 33 34 38 38 38 33 36 29 30 32 30 34 29 28 30 29 33 37 31 27 25 27 29 30 30 29 30 30 31 32 32 32 32 32 30 25 20 20
29 20 19 22 23 18 19 23 27 28 27 30 32 28 25 26 28 27 26 25 32 27 26 28 28 27 29 26 27 28 30 30 29 28 29 30 28 27 26 27 28 29 30 31 31 31 32 32 30 31 29 27 27 31 34 33 35 34 31 30 30 31 33 33 29 30 29 30 29 29 29 30 28 26 32 23 29 33 28 27 25 26 26 27 26 33 32 30 29 29 28 29 32 29 21 19 18
29 20 19 23 21 18 19 25 26 24 28 24 27 27 23 23 27 25 28 25 25 25 26 27 27 26 27 28 27 28 29 29 28 27 27 29 28 28 27 27 27 29 30 30 33 32 31 31 30 29 29 27 25 29 32 30 31 30 30 28 27 26 27 27 27 27 28 28 28 30 28 30 30 28 27 26 25 28 26 25 25 24 26 24 29 26 25 24 26 22 22 28 20 22 20 17 16
26 19 26 22 20 21 23 27 26 25 25 23 26 24 24 24 25 26 26 25 23 26 27 29 28 25 25 27 27 27 27 27 28 27 27 28 27 27 27 27 28 29 31 30 31 32 32 32 30 29 29 27 27 27 29 29 32 27 28 26 23 23 27 24 24 24 26 27 27 29 29 27 26 24 24 25 28 25 24 24 24 25 23 25 29 23 22 22 21 20 19 19 19 18 17 16 17
16 27 17 20 20 20 23 26 26 26 25 25 29 25 26 23 24 25 25 26 25 35 34 32 30 28 27 26 28 26 27 27 28 29 28 28 29 30 28 26 26 29 32 31 31 32 32 31 30 30 29 28 28 27 27 31 29 25 26 28 24 23 24 23 24 24 25 27 27 29 27 24 22 21 22 24 24 25 24 23 23 24 23 22 25 23 22 21 20 20 19 18 18 17 17 17 18
23 21 22 19 20 21 22 24 27 25 24 25 25 31 26 28 26 26 24 24 29 31 32 34 37 38 38 35 29 28 26 26 27 28 28 29 28 28 28 28 26 29 33 32 32 32 33 31 30 29 29 28 27 26 25 30 27 24 25 35 29 29 26 23 24 24 27 23 26 28 31 22 20 18 21 21 23 24 25 25 24 22 22 22 24 25 22 20 20 19 19 19 16 17 17 18 18
31 31 28 21 17 21 23 23 24 25 23 23 23 22 23 25 24 25 22 23 27 27 29 31 30 30 32 32 34 36 35 28 26 27 28 28 30 31 30 30 29 32 33 33 33 32 32 32 30 29 29 28 26 25 24 26 26 27 29 31 25 34 23 23 24 26 22 24 25 28 29 22 21 20 20 20 23 23 24 24 23 22 23 22 24 20 21 20 19 19 19 17 17 17 17 17 18
32 31 28 26 20 21 23 22 23 24 23 23 21 20 22 22 26 20 20 20 22 24 26 26 27 26 26 28 29 30 31 33 32 28 27 29 29 30 31 30 31 32 32 33 33 32 31 31 30 29 29 29 27 26 24 24 25 27 28 27 24 37 24 22 25 24 21 22 24 26 29 23 20 19 20 22 19 23 23 24 26 22 22 22 21 20 22 21 19 19 18 17 16 17 17 16 21
33 32 31 27 25 23 21 20 22 22 22 22 21 20 21 22 20 18 21 21 23 22 22 22 25 26 26 26 30 30 30 29 30 31 30 28 29 29 30 31 31 30 33 32 33 33 32 30 30 29 29 32 28 26 26 24 26 25 28 26 25 29 24 25 27 22 21 20 21 25 28 27 22 21 20 21 21 22 22 21 21 23 22 21 22 20 22 24 20 18 17 16 16 18 18 17 18
30 27 29 29 26 23 20 21 20 21 19 21 21 20 21 21 22 20 19 19 23 22 21 22 22 23 24 25 27 29 30 29 28 28 28 29 29 29 29 30 31 31 32 32 32 33 31 29 30 30 29 30 29 27 29 26 24 24 27 26 24 26 25 22 24 21 26 20 23 25 24 25 29 22 21 22 21 22 20 20 21 21 20 21 23 22 21 22 21 20 20 20 21 19 17 16 17
31 27 25 31 29 22 20 18 20 21 20 23 22 20 21 23 20 21 21 21 21 22 22 22 22 22 23 24 24 25 28 29 29 28 27 27 28 30 30 30 30 31 32 32 33 34 31 30 29 29 28 30 26 25 27 26 25 25 27 25 25 28 24 22 21 20 21 21 23 23 22 23 30 21 22 24 31 20 20 20 21 26 22 20 21 24 23 20 18 18 16 18 16 17 18 15 19
30 28 26 25 28 25 26 20 20 21 21 22 20 14 14 19 21 21 21 21 21 22 21 21 22 21 21 22 22 22 23 29 29 29 27 27 27 28 29 30 31 31 32 33 33 33 32 32 30 29 27 28 26 24 25 25 25 24 26 24 28 26 22 21 23 20 22 21 22 23 23 24 24 23 21 22 22 20 20 20 20 19 20 22 23 23 19 19 17 17 16 17 21 21 14 15 16
23 32 27 21 19 20 26 20 19 20 24 22 22 14 15 15 15 17 19 19 19 20 20 21 22 21 20 22 20 21 22 24 27 28 28 28 27 27 28 28 30 31 35 33 32 33 34 31 30 27 29 26 28 25 26 24 24 24 24 22 24 24 21 20 21 19 20 20 20 21 22 25 22 22 22 20 21 20 20 19 20 19 19 24 20 21 19 19 18 17 19 16 16 16 16 19 14
26 22 19 24 15 20 23 26 20 19 20 23 23 18 18 18 18 20 21 22 20 19 20 20 20 21 21 21 20 20 21 22 24 24 26 28 28 27 28 28 29 31 33 32 33 33 32 31 32 28 27 25 26 25 24 23 23 23 23 26 20 24 23 20 19 18 18 19 20 20 21 24 23 21 22 22 20 20 19 18 18 20 23 23 21 20 21 19 18 19 19 18 16 14 16 11 11
26 19 17 19 18 19 18 23 23 23 23 22 22 19 20 18 18 17 19 21 20 20 19 19 19 20 21 21 20 20 21 21 25 24 23 25 27 27 28 29 29 31 33 32 33 32 31 30 33 28 26 24 25 24 23 22 21 21 21 23 21 23 21 20 19 18 18 18 17 18 20 23 21 21 21 22 19 19 18 18 18 20 24 21 20 20 18 23 17 21 18 20 16 13 12 11 11
19 24 19 21 16 20 19 22 25 29 24 22 25 22 20 19 20 21 23 23 21 20 20 20 20 19 19 19 18 18 19 21 22 22 24 24 26 27 27 32 30 31 32 32 33 32 30 30 31 28 27 24 25 23 22 20 19 20 21 22 25 21 20 19 18 18 17 17 17 16 20 24 21 20 20 22 20 19 19 19 18 19 20 20 20 19 17 18 18 17 16 17 16 14 12 12 12
21 22 22 23 23 24 23 21 25 25 29 23 22 23 22 22 23 24 22 19 20 20 20 20 20 20 19 20 19 18 17 19 21 22 23 25 24 27 27 31 32 32 32 32 32 31 30 30 31 30 28 24 24 24 23 21 19 15 17 17 19 19 19 19 18 17 18 16 16 17 20 22 23 19 20 22 19 21 21 20 19 20 21 19 18 18 17 19 21 17 13 14 16 15 13 15 13
25 26 24 24 24 24 22 24 28 28 28 26 27 25 23 23 21 19 19 19 18 17 18 19 19 19 19 20 20 19 18 18 20 26 26 26 30 28 29 33 34 33 32 31 33 31 29 29 29 28 27 24 24 23 25 22 21 20 15 14 16 19 18 21 18 16 16 16 18 19 21 20 21 20 20 21 18 21 18 18 18 20 19 18 17 16 16 15 14 14 13 14 14 16 17 14 13
28 27 25 26 25 25 26 26 29 33 26 26 25 25 23 20 19 20 20 21 21 21 19 19 18 17 16 17 19 22 19 18 28 31 33 34 35 33 34 33 32 32 31 32 31 31 29 29 30 28 27 25 24 24 24 23 21 20 17 12 13 14 16 17 17 16 15 15 19 20 20 19 20 21 21 19 18 23 19 18 17 18 19 19 18 16 15 15 15 15 18 15 15 14 13 13 13
28 26 23 24 25 23 24 22 33 33 23 21 23 21 20 20 19 20 22 23 22 22 21 19 17 17 17 20 23 24 22 28 22 22 32 33 33 34 33 32 32 30 30 31 31 31 30 29 29 28 27 25 24 24 25 23 22 20 17 14 11 12 15 17 15 13 15 16 20 20 20 18 19 20 22 18 18 17 19 17 16 16 17 18 18 20 17 21 17 14 14 11 14 12 12 13 16
27 24 24 21 21 25 26 28 30 30 24 18 17 19 20 21 21 23 23 22 22 23 21 19 19 22 22 23 24 24 22 20 19 25 33 33 35 34 31 31 30 30 30 30 31 31 30 29 29 29 28 26 25 25 25 24 23 22 19 16 12 10 12 15 14 15 16 16 18 19 19 17 18 19 20 20 18 17 16 16 16 17 16 19 18 14 13 12 12 12 12 11 12 14 13 16 13
25 23 20 19 22 22 20 23 24 24 22 20 20 23 22 21 21 19 15 15 23 26 30 27 29 22 24 27 27 22 19 21 19 23 30 33 32 32 32 32 29 32 31 30 30 31 31 31 29 29 29 27 26 25 28 25 24 22 20 18 14 10 10 14 12 14 15 15 17 18 18 17 18 17 19 19 19 18 16 15 16 16 14 19 16 13 13 12 12 12 12 17 13 11 11 12 12
24 21 21 21 22 22 20 18 24 24 24 26 23 19 16 14 15 15 17 11 15 21 17 17 21 27 27 24 22 23 20 21 19 18 19 28 32 32 32 32 32 32 32 31 30 30 30 31 30 29 29 28 27 27 27 26 26 24 23 22 20 15 16 13 10 12 13 16 16 16 16 17 18 17 17 17 20 17 17 17 16 14 14 15 17 13 12 12 11 10 11 14 10 10 11 11 12
19 20 22 23 23 23 23 24 22 17 16 22 22 18 16 16 17 17 18 8 13 16 16 16 22 20 22 18 18 22 28 24 21 20 20 21 21 24 32 34 33 32 31 31 31 30 30 30 31 30 29 29 28 27 27 26 26 24 21 18 15 11 9 10 8 10 13 13 14 14 15 16 17 17 16 17 18 19 17 16 15 14 14 17 19 14 13 12 11 11 11 10 10 12 10 10 9
14 17 24 24 24 24 24 22 21 16 14 19 24 16 14 19 18 17 15 14 15 14 17 17 16 17 18 19 20 21 21 23 25 23 22 21 22 24 25 32 34 32 31 31 31 32 31 31 31 30 29 28 28 27 27 27 25 23 20 17 16 12 8 10 6 8 12 12 15 14 15 15 16 15 15 16 16 19 16 16 15 15 15 14 20 14 12 10 10 12 15 10 10 13 12 9 10
15 19 26 26 25 23 22 22 21 19 23 24 24 21 15 16 17 20 14 15 16 16 17 19 17 17 18 17 22 22 26 24 25 24 24 24 24 25 24 25 32 33 32 33 32 32 32 31 31 31 30 30 28 26 27 27 24 23 20 16 16 12 9 7 4 3 9 13 12 13 14 14 15 14 14 14 16 18 16 15 14 15 14 14 16 14 11 10 14 13 12 10 11 11 10 9 9
18 21 26 25 25 24 25 21 20 21 19 18 18 23 16 15 20 20 14 10 14 16 17 19 20 20 19 20 21 21 23 24 23 24 24 24 25 26 27 27 26 28 31 33 33 32 32 31 31 31 30 30 28 26 26 26 25 22 20 18 17 17 12 13 11 12 9 14 9 10 13 14 14 13 13 14 15 16 19 14 14 14 13 12 18 15 11 12 7 7 9 9 10 12 12 12 10
23 26 26 25 24 24 24 21 21 19 14 12 17 22 11 9 9 10 12 14 12 14 15 16 22 21 19 22 21 22 23 25 29 28 28 29 29 29 31 28 23 25 32 35 35 34 33 32 31 31 30 30 29 25 26 25 24 24 20 20 18 18 19 16 13 8 8 11 8 9 11 13 12 12 12 13 14 15 17 15 14 12 11 11 17 12 11 9 10 10 9 8 9 8 11 11 12
27 25 23 22 20 23 22 22 19 13 5 15 19 20 11 7 10 4 10 13 18 17 17 19 25 28 27 25 22 24 24 27 29 30 31 31 31 31 28 24 24 27 31 32 34 35 33 33 31 31 30 30 29 26 25 25 24 23 21 20 20 20 19 16 13 10 9 9 7 8 10 11 12 12 11 12 13 14 16 16 12 11 11 18 17 11 10 8 10 9 10 9 11 9 9 10 11
22 22 22 16 12 16 18 17 16 2 -3 11 18 15 17 6 11 11 13 15 17 18 12 15 20 22 25 26 26 26 25 27 29 30 28 29 27 25 26 24 24 27 30 30 31 33 35 33 32 30 30 30 29 27 25 25 25 24 23 21 20 20 20 16 12 10 9 8 7 8 10 10 10 12 11 11 12 13 15 14 16 12 14 12 11 10 9 8 9 9 9 9 9 10 9 13 9
18 19 18 13 8 7 1 4 2 -2 -4 3 4 14 10 9 8 11 12 13 15 21 23 20 21 22 23 24 25 27 27 26 27 24 25 26 25 26 26 25 26 28 30 30 30 30 33 34 32 31 30 30 29 27 25 25 25 24 24 23 21 21 18 14 10 9 8 8 7 8 8 8 9 11 10 10 11 12 14 12 12 10 12 11 12 10 10 8 8 9 8 9 10 9 9 10 10
16 15 15 10 6 1 -8 -2 1 2 7 6 7 13 9 11 11 15 12 10 14 17 21 22 24 24 22 23 25 27 26 24 23 23 23 24 25 26 26 26 27 27 27 28 28 28 30 35 33 31 30 30 29 27 25 25 24 24 24 23 22 21 18 14 10 8 8 9 9 8 8 8 9 8 10 10 11 12 14 12 12 10 11 11 11 10 10 9 10 9 10 10 9 9 10 10 10
16 19 16 9 9 1 -4 -2 -5 1 5 7 12 6 5 6 12 19 13 13 17 17 20 23 24 24 21 24 24 24 23 22 23 23 23 24 25 24 26 26 26 27 27 27 25 24 28 32 33 32 31 30 29 27 26 25 25 24 24 23 22 20 18 16 14 13 10 9 10 8 8 9 9 9 10 10 13 12 13 11 11 10 11 10 13 11 13 11 13 12 12 11 12 11 10 12 10
20 19 21 18 12 14 2 6 2 3 9 10 9 7 11 7 14 17 15 16 15 16 14 19 16 15 17 17 20 21 21 22 23 23 24 24 24 25 26 25 26 27 26 25 24 26 28 32 32 31 31 30 30 28 26 25 25 24 24 22 21 20 21 18 17 17 13 11 10 9 9 9 10 10 10 11 12 12 12 11 12 10 10 10 11 11 12 10 11 11 11 12 10 12 9 10 10
13 13 11 14 19 14 8 15 17 13 7 11 10 12 12 11 10 14 14 12 12 12 11 11 9 10 14 15 19 21 22 22 23 24 23 25 24 25 25 24 25 26 24 24 25 26 29 33 32 31 31 30 29 29 27 25 25 23 23 22 21 20 19 17 15 15 14 12 12 11 10 11 12 11 12 13 12 12 11 10 11 9 10 10 11 12 11 11 11 11 11 10 10 10 12 10 9
17 8 14 24 23 20 15 8 5 5 3 5 7 7 10 12 10 20 13 12 10 9 8 4 6 9 9 11 19 21 21 20 21 23 24 24 24 24 24 24 24 23 23 24 25 26 29 31 31 31 31 31 32 30 28 25 24 23 23 22 21 19 18 17 16 15 14 13 13 12 12 14 12 13 13 14 12 11 10 15 10 9 10 10 11 11 11 10 11 10 10 10 9 9 10 10 10
16 14 21 16 8 7 12 6 3 -0 -1 3 8 9 12 12 14 16 11 9 7 8 8 4 4 4 4 5 13 18 18 21 24 25 26 26 26 24 22 22 22 22 24 25 26 27 28 28 29 29 31 31 32 31 29 26 24 24 23 22 21 20 18 17 16 16 14 13 12 13 14 14 12 13 16 13 10 9 9 10 9 9 9 11 11 11 12 10 10 10 10 10 9 9 9 9 9
26 23 21 23 13 12 7 10 6 5 5 2 7 10 9 14 15 14 8 9 9 9 8 4 4 5 5 8 13 18 18 20 23 26 26 27 26 23 21 21 20 22 24 25 26 26 27 28 29 30 30 30 30 30 28 26 24 23 23 22 21 19 18 17 16 15 13 13 13 14 18 16 15 14 13 13 10 8 9 9 8 8 8 9 11 10 10 10 10 10 10 10 10 9 9 9 9
15 13 15 14 15 19 13 10 9 8 3 3 4 8 9 11 12 9 9 9 11 11 8 5 5 5 5 6 10 15 18 20 24 26 25 26 24 22 21 20 22 23 25 26 26 26 27 28 29 30 30 30 30 30 27 26 24 23 23 21 20 19 17 16 15 15 13 13 14 17 16 15 16 13 14 12 9 8 8 9 7 9 8 8 8 8 9 10 10 10 10 10 10 10 9 10 10
13 11 11 11 8 9 5 7 9 11 9 6 1 5 9 9 10 11 11 11 10 7 7 6 5 5 5 5 8 12 17 19 23 25 23 23 21 20 19 21 22 24 26 25 26 26 27 27 28 30 30 30 29 29 27 25 23 22 21 21 19 18 16 15 14 14 14 14 17 18 17 17 16 15 14 11 9 8 8 7 7 8 8 8 8 8 9 9 10 10 10 10 10 9 10 10 10